This demonstration page uses our WeatherBlox Daily Observations layout. Learn more.

Left ArrowRight Arrow

44.8408, -93.29828

Hourly Observations for November 17, 2019

Temp ( °F °C ) Dew Point ( °F °C ) Humidity (%) Winds ( mph kmh ) Pressure ( in mb ) Visibility ( mi km ) Precip ( " mm )
12:53 am 00:53 Cloudy with Haze 38 3.3 33 0.6 83 83 S 5 7 29.97 1015 6 10 0.00 0.00
1:12 am 01:12 Cloudy with Light Rain 39 3.9 33 0.6 79 79 SSW 5 7 29.98 1015 7 11 0.00 0.00
1:53 am 01:53 Cloudy with Light Rain 39 3.9 33 0.6 79 79 S 6 9 29.96 1015 7 11 0.00 0.00
2:53 am 02:53 Cloudy with Light Rain 38 3.3 33 0.6 83 83 S 5 7 29.94 1014 6 10 0.01 0.25
3:42 am 03:42 Cloudy with Light Rain 38 3.3 35 1.7 89 89 S 6 9 29.94 1014 5 8 0.02 0.51
3:53 am 03:53 Cloudy with Light Rain 38 3.3 35 1.7 89 89 SSW 6 9 29.93 1014 4 6 0.03 0.76
4:38 am 04:38 Cloudy with Mist and Fog 38 3.3 35 1.7 89 89 SSW 5 7 29.93 1014 4 6 0.01 0.25
4:53 am 04:53 Cloudy with Mist and Fog 38 3.3 35 1.7 89 89 SSW 3 6 29.91 1013 4 6 0.01 0.25
5:08 am 05:08 Cloudy with Mist and Fog 37 2.8 35 1.7 93 93 WSW 3 6 29.94 1014 3 5 0.00 0.00
5:53 am 05:53 Cloudy with Drizzle 37 2.8 35 1.7 93 93 WSW 5 7 29.92 1013 3 5 0.00 0.00
6:03 am 06:03 Cloudy with Drizzle 37 2.8 35 1.7 93 93 WSW 7 11 29.94 1014 3 4 0.00 0.00
6:17 am 06:17 Cloudy with Drizzle 37 2.8 35 1.7 93 93 WSW 7 11 29.93 1013 3 5 0.00 0.00
6:53 am 06:53 Cloudy with Mist and Fog 38 3.3 35 1.7 89 89 W 7 11 29.91 1013 4 6 0.00 0.00
7:53 am 07:53 Cloudy with Mist and Fog 38 3.3 35 1.7 89 89 WNW 9 15 29.92 1013 5 8 0.00 0.00
8:53 am 08:53 Cloudy 38 3.3 35 1.7 89 89 WNW 8 13 29.92 1013 7 11 0.00 0.00
9:53 am 09:53 Cloudy 39 3.9 34 1.1 82 82 NW 9 15 29.92 1013 10 16 0.00 0.00
10:24 am 10:24 Cloudy 39 3.9 33 0.6 79 79 NW 13 20 29.93 1014 10 16 0.00 0.00
10:53 am 10:53 Cloudy 38 3.3 32 0 79 79 NW 10 17 29.92 1013 8 13 0.00 0.00
11:31 am 11:31 Cloudy 38 3.3 32 0 79 79 NW 13 20 29.92 1013 8 13 0.00 0.00
11:53 am 11:53 Cloudy 38 3.3 32 0 79 79 NW 14 22 29.91 1013 8 13 0.00 0.00
12:53 pm 12:53 Cloudy 38 3.3 31 -0.6 76 76 NW 14 22 29.90 1012 10 16 0.00 0.00
1:08 pm 13:08 Cloudy 38 3.3 30 -1.1 73 73 NW 10 17 29.90 1013 10 16 0.00 0.00
1:53 pm 13:53 Cloudy 38 3.3 29 -1.7 70 70 NW 12 19 29.89 1012 10 16 0.00 0.00
2:53 pm 14:53 Cloudy 37 2.8 28 -2.2 70 70 NW 12 19 29.89 1012 10 16 0.00 0.00
3:53 pm 15:53 Cloudy 36 2.2 28 -2.2 73 73 NW 10 17 29.90 1013 10 16 0.00 0.00
4:53 pm 16:53 Cloudy 34 1.1 27 -2.8 76 76 NNW 12 19 29.91 1013 10 16 0.00 0.00
5:53 pm 17:53 Cloudy 33 0.6 25 -3.9 72 72 NNW 13 20 29.92 1013 10 16 0.00 0.00
6:53 pm 18:53 Cloudy 32 0 25 -3.9 75 75 WNW 6 9 29.91 1013 10 16 0.00 0.00
7:53 pm 19:53 Cloudy 32 0 25 -3.9 75 75 WNW 6 9 29.90 1013 10 16 0.00 0.00
8:08 pm 20:08 Cloudy 32 0 25 -3.9 75 75 NW 9 15 29.93 1013 10 16 0.00 0.00
8:53 pm 20:53 Cloudy 32 0 25 -3.9 75 75 NW 7 11 29.90 1013 10 16 0.00 0.00
9:43 pm 21:43 Cloudy 32 0 25 -3.9 75 75 NNW 6 9 29.92 1013 10 16 0.00 0.00
9:53 pm 21:53 Cloudy 32 0 26 -3.3 79 79 NW 7 11 29.89 1012 10 16 0.00 0.00
10:09 pm 22:09 Cloudy 32 0 26 -3.3 79 79 NW 8 13 29.92 1013 10 16 0.00 0.00
10:53 pm 22:53 Cloudy 32 0 26 -3.3 79 79 W 6 9 29.88 1012 10 16 0.00 0.00
11:53 pm 23:53 Cloudy 32 0 26 -3.3 79 79 WNW 6 9 29.87 1012 10 16 0.00 0.00

Powered by AerisWeather